< < Back
Terminal Aerodrome Forecast


Current Version              Previous Versions:   1  2  3  4  5  6  7  8  9  

Terminal Aerodrome Forecast

830
FTUS42 KFFC 160500
TAFFTY
TAF
KFTY 160528Z 1606/1706 34006KT P6SM SKC
     FM161000 02004KT P6SM SKC
     FM161200 07007KT P6SM SKC
     FM161500 10009G16KT P6SM SCT250
     FM170000 10007KT P6SM SCT250=

Latest METAR

027
SAUS70 KWBC 170100 RRF
MTRFTY
METAR KFTY 170053Z 10005KT 10SM CLR 13/M03 A3025 RMK AO2 SLP243
T01331028


USA.gov is the U.S. government's official web portal to all federal, state and local government web resources and services.